STARLINK-31683, 59573

Orbit data source: Space-Track

STARLINK-31683, 59573 is a payload satellite owned by SpaceX/Seattle (US) in LEO that was launched on Tue, 23 Apr 2024 UTC via an FALCON 9 launch vehicle from the Air Force Eastern Test Range (AFETR). Payload-class satellites include a variety of spacecraft equipped with specific instruments for various scientific and technological missions. These include communications satellites like Starlink; space stations such as the ISS; scientific satellites like the Hubble; Earth observation satellites from companies like Planet Labs, Umbra, and HawkEye 360; GPS; miniature CubeSats for education and research; and military/defense satellites.

Loading next visibility...
Identifier
59573, 2024-076K
Orbit
LEO
Country
Flag of USUS
Related business
Manufacturer
SpaceX/Seattle
Mission
Operational Commercial Communications
Bus & Motor
STARLINK V2M, Unknown motor
Mass
730 kg wet, ~700 kg dry
Launch date (UTC)
2024-04-23 (2 years ago)
Launch vehicle
FALCON 9
Launch site
Air Force Eastern Test Range (AFETR)
Object type
Payload
Rocket body
Debris
Shape & HBR
Box + 2 Pan, 17.7 m
Radar Cross Section
33.884 m², Large (>1 m²)

Expand to show TLE details & history
Last TLE update: 1 day ago

TLE from 1 day ago
0 STARLINK-31683
1 59573U 24076K   25302.58687442  .00001645  00000-0  69304-4 0  9996
2 59573  43.0018  29.2761 0001000 254.3527 105.7214 15.27574155 86458
Epoch: 2025-10-29T14:05Z
TLE epoch observation values (Epoch: 2025-10-29T14:05:05.949Z)
Latitude
-0.00006°
Longitude
139.84337°
Altitude
483.028 km
Speed
7.626 km/s
True Right ascension
01h 57m 06s
True Declination
0° 00' 00"
Sunlit
Object was in full shadow at epoch
Visualization orbit readout
Latitude
Unknown
Longitude
Unknown
Altitude
Unknown
Speed
Unknown
Apparent Right ascension
Unknown
Apparent Declination
Unknown
Sunlit
N/A
Visualization observer readout
Local Sidereal Time
09:12:31
Azimuth
Unknown
Elevation
Unknown
Doppler factor
Unknown
Orbital elements
Apogee altitude
485.698 km
Perigee altitude
484.325 km
Semi-major axis
6,863.148 km
Eccentricity
0.0001
Inclination
43.0018°
RAAN
29.2761°
Arg. of periapsis
254.3527°
True anomaly
105.73243°
Mean anomaly
105.7214°
Eccentric anomaly
105.72692°
Mean motion
3.81732 °/min
Orbital period
94.31 mins
BSTAR
0.000069304
Loading maneuver chart data...
Computing Atmospheric mass density...
Loading historical data...
Loading historical data...
Loading historical data...
Loading historical data...
Loading historical data...
Loading historical data...
Loading historical data...

Documentation

Showing up to 5 results
|